H1 CPF 2 NER 2022 2 26 9 057 01 glonass135 H2 1600801 9135 41330 2022 2 26 0 0 0 2022 3 1 23 45 0 900 1 1 0 0 0 1 H9 10 0 59636 0.00000 0 22441997.192 9043079.477 8039978.717 10 0 59636 900.00000 0 23235972.724 9259873.070 4930215.209 10 0 59636 1800.00000 0 23691052.389 9253992.043 1724520.227 10 0 59636 2700.00000 0 23774032.368 9072216.539 -1514736.020 10 0 59636 3600.00000 0 23463939.028 8767567.969 -4724504.659 10 0 59636 4500.00000 0 22753010.552 8396833.152 -7842294.733 10 0 59636 5400.00000 0 21647139.452 8017935.982 -10807399.964 10 0 59636 6300.00000 0 20165756.289 7687269.281 -13562090.675 10 0 59636 7200.00000 0 18341158.813 7457101.183 -16052746.456 10 0 59636 8100.00000 0 16217314.415 7373167.190 -18230906.676 10 0 59636 9000.00000 0 13848186.017 7472550.905 -20054217.759 10 0 59636 9900.00000 0 11295651.898 7781943.942 -21487258.427 10 0 59636 10800.00000 0 8627106.718 8316359.155 -22502226.931 10 0 59636 11700.00000 0 5912844.348 9078351.828 -23079477.228 10 0 59636 12600.00000 0 3223331.915 10057781.767 -23207894.187 10 0 59636 13500.00000 0 626488.675 11232126.274 -22885101.295 10 0 59636 14400.00000 0 -1814917.394 12567330.652 -22117497.543 10 0 59636 15300.00000 0 -4045647.496 14019160.286 -20920123.550 10 0 59636 16200.00000 0 -6020046.601 15534997.290 -19316360.184 10 0 59636 17100.00000 0 -7703690.593 17056006.189 -17337466.056 10 0 59636 18000.00000 0 -9074559.026 18519577.617 -15021963.334 10 0 59636 18900.00000 0 -10123686.540 19861947.555 -12414884.073 10 0 59636 19800.00000 0 -10855267.794 21020882.300 -9566891.865 10 0 59636 20700.00000 0 -11286213.546 21938316.678 -6533296.059 10 0 59636 21600.00000 0 -11445178.451 22562835.031 -3372977.702 10 0 59636 22500.00000 0 -11371103.135 22851891.168 -147248.063 10 0 59636 23400.00000 0 -11111333.217 22773674.376 3081338.072 10 0 59636 24300.00000 0 -10719395.570 22308543.465 6250191.427 10 0 59636 25200.00000 0 -10252526.156 21449968.883 9297896.358 10 0 59636 26100.00000 0 -9769054.012 20204943.452 12165394.855 10 0 59636 27000.00000 0 -9325751.655 18593844.404 14797123.957 10 0 59636 27900.00000 0 -8975263.428 16649752.065 17142085.130 10 0 59636 28800.00000 0 -8763719.798 14417253.117 19154825.491 10 0 59636 29700.00000 0 -8728637.744 11950777.443 20796312.673 10 0 59636 30600.00000 0 -8897195.411 9312536.723 22034687.094 10 0 59636 31500.00000 0 -9284953.574 6570149.337 22845877.674 10 0 59636 32400.00000 0 -9895077.998 3794048.846 23214069.538 10 0 59636 33300.00000 0 -10718096.064 1054782.219 23132014.842 10 0 59636 34200.00000 0 -11732198.916 -1579691.322 22601180.539 10 0 59636 35100.00000 0 -12904077.803 -4046589.976 21631729.786 10 0 59636 36000.00000 0 -14190261.111 -6290681.050 20242336.564 10 0 59636 36900.00000 0 -15538897.521 -8266336.740 18459836.063 10 0 59636 37800.00000 0 -16891911.949 -9939188.993 16318716.440 10 0 59636 38700.00000 0 -18187444.937 -11287314.766 13860460.529 10 0 59636 39600.00000 0 -19362473.738 -12301902.189 11132749.213 10 0 59636 40500.00000 0 -20355505.171 -12987369.821 8188540.989 10 0 59636 41400.00000 0 -21109226.674 -13360934.077 5085044.991 10 0 59636 42300.00000 0 -21573003.147 -13451643.086 1882607.339 10 0 59636 43200.00000 0 -21705113.219 -13298918.107 -1356467.335 10 0 59636 44100.00000 0 -21474629.258 -12950664.620 -4569135.681 10 0 59636 45000.00000 0 -20862860.279 -12461033.734 -7692851.962 10 0 59636 45900.00000 0 -19864295.466 -11887929.680 -10666795.811 10 0 59636 46800.00000 0 -18487007.165 -11290370.089 -13433066.313 10 0 59636 47700.00000 0 -16752495.379 -10725812.050 -15937818.007 10 0 59636 48600.00000 0 -14694979.536 -10247558.351 -18132315.784 10 0 59636 49500.00000 0 -12360166.837 -9902354.681 -19973887.572 10 0 59636 50400.00000 0 -9803548.726 -9728280.206 -21426755.847 10 0 59636 51300.00000 0 -7088296.819 -9753021.145 -22462731.898 10 0 59636 52200.00000 0 -4282846.315 -9992600.449 -23061759.656 10 0 59636 53100.00000 0 -1458267.915 -10450617.083 -23212299.017 10 0 59636 54000.00000 0 1314462.303 -11118026.683 -22911541.958 10 0 59636 54900.00000 0 3967181.664 -11973472.404 -22165457.949 10 0 59636 55800.00000 0 6437135.652 -12984151.519 -20988668.549 10 0 59636 56700.00000 0 8669341.617 -14107180.818 -19404154.242 10 0 59636 57600.00000 0 10618624.260 -15291402.968 -17442799.759 10 0 59636 58500.00000 0 12251239.571 -16479557.520 -15142787.129 10 0 59636 59400.00000 0 13546021.273 -17610725.090 -12548848.573 10 0 59636 60300.00000 0 14495003.886 -18622941.858 -9711393.885 10 0 59636 61200.00000 0 15103498.217 -19455874.432 -6685529.448 10 0 59636 62100.00000 0 15389618.135 -20053442.751 -3529987.997 10 0 59636 63000.00000 0 15383280.243 -20366280.872 -305989.864 10 0 59636 63900.00000 0 15124719.969 -20353932.380 2923942.088 10 0 59636 64800.00000 0 14662587.747 -19986688.310 6097191.011 10 0 59636 65700.00000 0 14051706.250 -19246990.465 9152254.844 10 0 59636 66600.00000 0 13350583.609 -18130341.201 12029932.076 10 0 59636 67500.00000 0 12618787.505 -16645681.291 14674462.006 10 0 59636 68400.00000 0 11914290.556 -14815219.607 17034597.983 10 0 59636 69300.00000 0 11290898.394 -12673721.021 19064593.421 10 0 59636 70200.00000 0 10795868.175 -10267281.320 20725082.291 10 0 59636 71100.00000 0 10467817.213 -7651638.905 21983837.775 10 0 59636 72000.00000 0 10335009.290 -4890092.208 22816394.958 10 0 59636 72900.00000 0 10414090.536 -2051107.837 23206526.025 10 0 59636 73800.00000 0 10709328.138 794282.901 23146558.933 10 0 59636 74700.00000 0 11212384.396 3575192.439 22637533.257 10 0 59636 75600.00000 0 11902636.456 6223579.450 21689189.772 10 0 59636 76500.00000 0 12748029.456 8676834.402 20319793.168 10 0 59636 77400.00000 0 13706428.503 10880141.562 18555790.344 10 0 59636 78300.00000 0 14727413.987 12788519.878 16431309.689 10 0 59636 79200.00000 0 15754445.864 14368458.034 13987509.837 10 0 59636 80100.00000 0 16727306.675 15599075.468 11271789.415 10 0 59636 81000.00000 0 17584720.840 16472760.802 8336872.215 10 0 59636 81900.00000 0 18267039.756 16995260.839 5239784.931 10 0 59636 82800.00000 0 18718878.890 17185216.332 2040747.211 10 0 59636 83700.00000 0 18891594.562 17073164.256 -1198004.187 10 0 59636 84600.00000 0 18745494.521 16700048.987 -4413433.722 10 0 59636 85500.00000 0 18251687.406 16115305.879 -7542943.105 10 0 59637 0.00000 0 17393491.505 15374599.162 -10525599.735 10 0 59637 900.00000 0 16167341.301 14537310.451 -13303333.967 10 0 59637 1800.00000 0 14583153.493 13663886.255 -15822076.795 10 0 59637 2700.00000 0 12664134.457 12813156.484 -18032820.242 10 0 59637 3600.00000 0 10446037.522 12039739.268 -19892575.162 10 0 59637 4500.00000 0 7975900.376 11391642.160 -21365209.043 10 0 59637 5400.00000 0 5310315.280 10908161.530 -22422147.309 10 0 59637 6300.00000 0 2513304.308 10618168.888 -23042924.787 10 0 59637 7200.00000 0 -346111.654 10538856.215 -23215577.106 10 0 59637 8100.00000 0 -3196548.905 10674992.666 -22936865.160 10 0 59637 9000.00000 0 -5966992.396 11018723.235 -22212328.992 10 0 59637 9900.00000 0 -8589509.305 11549917.055 -21056170.792 10 0 59637 10800.00000 0 -11001832.574 12237049.819 -19490969.940 10 0 59637 11700.00000 0 -13149707.873 13038582.370 -17547236.148 10 0 59637 12600.00000 0 -14988907.447 13904776.754 -15262809.821 10 0 59637 13500.00000 0 -16486828.460 14779872.759 -12682121.555 10 0 59637 14400.00000 0 -17623610.822 15604532.884 -9855325.341 10 0 59637 15300.00000 0 -18392729.538 16318452.583 -6837322.462 10 0 59637 16200.00000 0 -18801038.629 16863025.758 -3686695.111 10 0 59637 17100.00000 0 -18868266.516 17183953.221 -464570.415 10 0 59637 18000.00000 0 -18625985.564 17233684.395 2766563.001 10 0 59637 18900.00000 0 -18116100.404 16973589.512 5944063.065 10 0 59637 19800.00000 0 -17388919.561 16375770.975 9006343.679 10 0 59637 20700.00000 0 -16500892.113 15424437.658 11894062.248 10 0 59637 21600.00000 0 -15512104.880 14116784.223 14551262.758 10 0 59637 22500.00000 0 -14483645.351 12463338.058 16926452.839 10 0 59637 23400.00000 0 -13474940.874 10487758.643 18973594.518 10 0 59637 24300.00000 0 -12541185.424 8226096.683 20652990.295 10 0 59637 25200.00000 0 -11730961.370 5725542.617 21932048.089 10 0 59637 26100.00000 0 -11084155.508 3042715.156 22785910.872 10 0 59637 27000.00000 0 -10630256.305 241559.361 23197939.279 10 0 59637 27900.00000 0 -10387103.551 -2609060.206 23160038.096 10 0 59637 28800.00000 0 -10360142.905 -5437972.974 22672820.142 10 0 59637 29700.00000 0 -10542216.973 -8174415.628 21745603.978 10 0 59637 30600.00000 0 -10913902.327 -10750733.902 20396244.728 10 0 59637 31500.00000 0 -11444379.189 -13104961.645 18650800.249 10 0 59637 32400.00000 0 -12092798.202 -15183170.668 16543037.974 10 0 59637 33300.00000 0 -12810087.740 -16941493.927 14113790.728 10 0 59637 34200.00000 0 -13541126.422 -18347737.646 11410172.910 10 0 59637 35100.00000 0 -14227189.707 -19382514.940 8484671.323 10 0 59637 36000.00000 0 -14808567.413 -20039853.209 5394127.685 10 0 59637 36900.00000 0 -15227241.221 -20327249.563 2198632.444 10 0 59637 37800.00000 0 -15429508.171 -20265171.867 -1039648.410 10 0 59637 38700.00000 0 -15368438.047 -19886026.525 -4257690.149 10 0 59637 39600.00000 0 -15006059.242 -19232636.866 -7392845.062 10 0 59637 40500.00000 0 -14315179.083 -18356297.041 -10384072.026 10 0 59637 41400.00000 0 -13280760.054 -17314484.451 -13173134.826 10 0 59637 42300.00000 0 -11900792.328 -16168328.399 -15705744.655 10 0 59637 43200.00000 0 -10186624.493 -14979942.948 -17932623.727 10 0 59637 44100.00000 0 -8162737.488 -13809737.549 -19810468.632 10 0 59637 45000.00000 0 -5865970.494 -12713819.774 -21302794.309 10 0 59637 45900.00000 0 -3344230.712 -11741600.102 -22380642.278 10 0 59637 46800.00000 0 -654740.680 -10933699.841 -23023139.651 10 0 59637 47700.00000 0 2138103.795 -10320250.055 -23217898.574 10 0 59637 48600.00000 0 4965175.870 -9919652.451 -22961249.027 10 0 59637 49500.00000 0 7755258.598 -9737853.489 -22258301.208 10 0 59637 50400.00000 0 10437774.804 -9768161.167 -21122836.981 10 0 59637 51300.00000 0 12945492.868 -9991610.989 -19577033.174 10 0 59637 52200.00000 0 15217096.560 -10377864.530 -17651022.582 10 0 59637 53100.00000 0 17199512.799 -10886601.696 -15382301.661 10 0 59637 54000.00000 0 18849901.607 -11469347.088 -12814996.677 10 0 59637 54900.00000 0 20137226.626 -12071652.788 -9999002.748 10 0 59637 55800.00000 0 21043342.094 -12635545.029 -6989012.685 10 0 59637 56700.00000 0 21563552.450 -13102131.213 -3843454.534 10 0 59637 57600.00000 0 21706622.731 -13414257.211 -623358.491 10 0 59637 58500.00000 0 21494240.761 -13519102.783 2608824.792 10 0 59637 59400.00000 0 20959955.024 -13370605.744 5790431.627 10 0 59637 60300.00000 0 20147633.840 -12931612.734 8859795.243 10 0 59637 61200.00000 0 19109511.296 -12175665.973 11757434.977 10 0 59637 62100.00000 0 17903902.365 -11088350.694 14427202.092 10 0 59637 63000.00000 0 16592683.248 -9668146.177 16817360.618 10 0 59637 63900.00000 0 15238642.426 -7926744.103 18881582.833 10 0 59637 64800.00000 0 13902813.039 -5888819.870 20579840.900 10 0 59637 65700.00000 0 12641897.772 -3591265.133 21879178.142 10 0 59637 66600.00000 0 11505893.400 -1081912.086 22754345.605 10 0 59637 67500.00000 0 10536013.796 1582199.165 23188292.131 10 0 59637 68400.00000 0 9762997.767 4336939.971 23172498.658 10 0 59637 69300.00000 0 9205872.271 7113512.980 22707150.163 10 0 59637 70200.00000 0 8871222.699 9841073.730 21801141.564 10 0 59637 71100.00000 0 8753001.001 12449446.692 20471916.650 10 0 59637 72000.00000 0 8832880.142 14871824.032 18745142.209 10 0 59637 72900.00000 0 9081140.599 17047335.754 16654222.475 10 0 59637 73800.00000 0 9458052.285 18923384.685 14239662.051 10 0 59637 74700.00000 0 9915694.301 20457648.931 11548288.570 10 0 59637 75600.00000 0 10400136.210 21619667.995 8632349.225 10 0 59637 76500.00000 0 10853888.834 22391945.796 5548498.083 10 0 59637 77400.00000 0 11218520.729 22770523.816 2356693.705 10 0 59637 78300.00000 0 11437328.990 22764999.979 -880971.327 10 0 59637 79200.00000 0 11457950.286 22397992.246 -4101485.658 10 0 59637 80100.00000 0 11234800.253 21704069.569 -7242154.541 10 0 59637 81000.00000 0 10731236.417 20728195.644 -10241830.260 10 0 59637 81900.00000 0 9921351.496 19523751.707 -13042112.492 10 0 59637 82800.00000 0 8791319.720 18150222.653 -15588494.028 10 0 59637 83700.00000 0 7340237.849 16670645.012 -17831428.687 10 0 59637 84600.00000 0 5580424.170 15148925.317 -19727299.979 10 0 59637 85500.00000 0 3537161.977 13647142.665 -21239271.269 10 0 59638 0.00000 0 1247897.701 12222949.710 -22338000.865 10 0 59638 900.00000 0 -1239074.449 10927180.822 -23002208.944 10 0 59638 1800.00000 0 -3866383.535 9801769.739 -23219084.385 10 0 59638 2700.00000 0 -6569738.988 8878060.980 -22984526.311 10 0 59638 3600.00000 0 -9280381.019 8175586.934 -22303214.763 10 0 59638 4500.00000 0 -11927723.631 7701359.990 -21188510.580 10 0 59638 5400.00000 0 -14442080.385 7449708.086 -19662186.904 10 0 59638 6300.00000 0 -16757359.938 7402659.101 -17753998.082 10 0 59638 7200.00000 0 -18813619.793 7530856.458 -15501094.741 10 0 59638 8100.00000 0 -20559372.686 7794966.018 -12947296.673 10 0 59638 9000.00000 0 -21953550.586 8147513.871 -10142237.818 10 0 59638 9900.00000 0 -22967045.388 8535076.642 -7140400.127 10 0 59638 10800.00000 0 -23583763.297 8900731.243 -4000055.116 10 0 59638 11700.00000 0 -23801150.083 9186660.254 -782133.671 10 0 59638 12600.00000 0 -23630166.495 9336802.741 2450953.849 10 0 59638 13500.00000 0 -23094716.072 9299438.528 5636524.444 10 0 59638 14400.00000 0 -22230550.307 9029596.862 8712832.950 10 0 59638 15300.00000 0 -21083697.860 8491187.893 11620262.883 10 0 59638 16200.00000 0 -19708484.130 7658767.110 14302475.005 10 0 59638 17100.00000 0 -18165224.359 6518858.139 16707491.882 10 0 59638 18000.00000 0 -16517686.753 5070777.896 18788698.044 10 0 59638 18900.00000 0 -14830431.422 3326928.597 20505737.131 10 0 59638 19800.00000 0 -13166135.754 1312543.229 21825289.419 10 0 59638 20700.00000 0 -11583017.346 -935106.303 22721715.276 10 0 59638 21600.00000 0 -10132461.307 -3368007.104 23177552.644 10 0 59638 22500.00000 0 -8856950.263 -5929157.155 23183859.133 10 0 59638 23400.00000 0 -7788382.990 -8554700.127 22740392.038 10 0 59638 24300.00000 0 -6946851.450 -11176356.314 21855622.402 10 0 59638 25200.00000 0 -6339927.219 -13724050.342 20546582.086 10 0 59638 26100.00000 0 -5962487.231 -16128627.729 18838545.864 10 0 59638 27000.00000 0 -5797086.384 -18324548.273 16764553.484 10 0 59638 27900.00000 0 -5814861.682 -20252444.690 14364779.739 10 0 59638 28800.00000 0 -5976930.292 -21861439.829 11685763.640 10 0 59638 29700.00000 0 -6236222.827 -23111125.476 8779510.702 10 0 59638 30600.00000 0 -6539674.580 -23973119.435 5702485.103 10 0 59638 31500.00000 0 -6830681.840 -24432134.922 2514511.157 10 0 59638 32400.00000 0 -7051718.799 -24486516.721 -722394.425 10 0 59638 33300.00000 0 -7147003.300 -24148221.045 -3945236.202 10 0 59638 34200.00000 0 -7065097.270 -23442239.609 -7091275.028 10 0 59638 35100.00000 0 -6761330.202 -22405492.190 -10099259.311 10 0 59638 36000.00000 0 -6199941.473 -21085234.649 -12910627.403 10 0 59638 36900.00000 0 -5355849.247 -19537050.053 -15470656.493 10 0 59638 37800.00000 0 -4215969.707 -17822508.356 -17729534.749 10 0 59638 38700.00000 0 -2780029.575 -16006593.936 -19643335.196 10 0 59638 39600.00000 0 -1060836.606 -14155010.082 -21174871.971 10 0 59638 40500.00000 0 916004.184 -12331474.261 -22294422.334 10 0 59638 41400.00000 0 3112917.349 -10595118.040 -22980300.702 10 0 59638 42300.00000 0 5481692.618 -8998100.704 -23219274.026 10 0 59638 43200.00000 0 7965273.807 -7583536.099 -23006811.160 10 0 59638 44100.00000 0 10499926.556 -6383818.674 -22347162.104 10 0 59638 45000.00000 0 13017694.621 -5419417.644 -21253266.286 10 0 59638 45900.00000 0 15449042.630 -4698188.262 -19746492.314 10 0 59638 46800.00000 0 17725575.524 -4215227.360 -17856214.772 10 0 59638 47700.00000 0 19782721.746 -3953277.488 -15619236.665 10 0 59638 48600.00000 0 21562268.964 -3883660.935 -13079069.055 10 0 59638 49500.00000 0 23014647.284 -3967702.781 -10285081.984 10 0 59638 50400.00000 0 24100865.476 -4158581.736 -7291543.403 10 0 59638 51300.00000 0 24794020.284 -4403529.676 -4156564.807 10 0 59638 52200.00000 0 25080316.785 -4646286.287 -940974.054 10 0 59638 53100.00000 0 24959558.053 -4829704.732 2292862.631 10 0 59638 54000.00000 0 24445084.681 -4898398.021 5482246.722 10 0 59638 54900.00000 0 23563167.525 -4801314.241 8565358.275 10 0 59638 55800.00000 0 22351879.771 -4494131.969 11482448.316 10 0 59638 56700.00000 0 20859496.025 -3941374.803 14176990.041 10 0 59638 57600.00000 0 19142485.560 -3118155.791 16596767.064 10 0 59638 58500.00000 0 17263183.559 -2011478.050 18694878.213 10 0 59638 59400.00000 0 15287237.282 -621036.342 20430640.179 10 0 59638 60300.00000 0 13280933.124 1040515.008 21770371.305 10 0 59638 61200.00000 0 11308515.350 2947840.278 22688041.930 10 0 59638 62100.00000 0 9429607.383 5063736.607 23165779.283 10 0 59638 63000.00000 0 7696842.231 7340452.236 23194217.373 10 0 59638 63900.00000 0 6153800.033 9721455.675 22772685.065 10 0 59638 64800.00000 0 4833338.055 12143584.160 21909228.316 10 0 59638 65700.00000 0 3756382.320 14539483.774 20620465.424 10 0 59638 66600.00000 0 2931231.147 16840241.164 18931277.106 10 0 59638 67500.00000 0 2353399.652 18978098.440 16874336.255 10 0 59638 68400.00000 0 2006011.796 20889138.801 14489485.211 10 0 59638 69300.00000 0 1860723.675 22515830.999 11822971.518 10 0 59638 70200.00000 0 1879139.315 23809326.108 8926556.028 10 0 59638 71100.00000 0 2014659.204 24731409.908 5856509.971 10 0 59638 72000.00000 0 2214683.320 25256028.170 2672520.325 10 0 59638 72900.00000 0 2423074.880 25370319.951 -563475.101 10 0 59638 73800.00000 0 2582779.681 25075114.587 -3788499.709 10 0 59638 74700.00000 0 2638488.948 24384870.796 -6939772.681 10 0 59638 75600.00000 0 2539231.426 23327060.087 -9955941.023 10 0 59638 76500.00000 0 2240783.422 21941020.330 -12778283.938 10 0 59638 77400.00000 0 1707793.167 20276328.024 -15351864.857 10 0 59638 78300.00000 0 915528.140 18390758.276 -17626607.826 10 0 59638 79200.00000 0 -148829.833 16347918.896 -19558276.619 10 0 59638 80100.00000 0 -1485397.466 14214658.761 -21109337.101 10 0 59638 81000.00000 0 -3081344.969 12058359.794 -22249686.113 10 0 59638 81900.00000 0 -4911204.059 9944226.428 -22957232.969 10 0 59638 82800.00000 0 -6937716.579 7932686.168 -23218322.758 10 0 59638 83700.00000 0 -9113188.477 6077009.686 -23027993.944 10 0 59638 84600.00000 0 -11381292.793 4421249.159 -22390065.979 10 0 59638 85500.00000 0 -13679246.377 2998580.001 -21317055.962 10 0 59639 0.00000 0 -15940269.514 1830113.854 -19829926.771 10 0 59639 900.00000 0 -18096227.200 924230.189 -17957671.175 10 0 59639 1800.00000 0 -20080339.071 276454.138 -15736742.543 10 0 59639 2700.00000 0 -21829849.375 -130118.396 -13210340.775 10 0 59639 3600.00000 0 -23288542.914 -323866.407 -10427569.405 10 0 59639 4500.00000 0 -24409003.623 -343202.717 -7442479.679 10 0 59639 5400.00000 0 -25154521.884 -234708.172 -4313020.341 10 0 59639 6300.00000 0 -25500571.492 -50920.869 -1099913.523 10 0 59639 7200.00000 0 -25435795.221 152125.501 2134521.323 10 0 59639 8100.00000 0 -24962458.473 317509.761 5327572.724 10 0 59639 9000.00000 0 -24096352.646 390067.401 8417348.464 10 0 59639 9900.00000 0 -22866152.824 318959.084 11343969.483 10 0 59639 10800.00000 0 -21312256.979 60055.109 14050723.696 10 0 59639 11700.00000 0 -19485155.305 -421964.702 16485157.873 10 0 59639 12600.00000 0 -17443397.691 -1151884.245 18600087.016 10 0 59639 13500.00000 0 -15251243.729 -2142670.463 20354502.453 10 0 59639 14400.00000 0 -12976092.555 -3394693.204 21714361.819 10 0 59639 15300.00000 0 -10685798.809 -4895479.283 22653246.268 10 0 59639 16200.00000 0 -8445985.421 -6620012.345 23152872.745 10 0 59639 17100.00000 0 -6317464.021 -8531567.707 23203451.695 10 0 59639 18000.00000 0 -4353869.360 -10583049.070 22803883.198 10 0 59639 18900.00000 0 -2599605.319 -12718773.311 21961787.432 10 0 59639 19800.00000 0 -1088187.322 -14876630.847 20693368.112 10 0 59639 20700.00000 0 158950.131 -16990533.068 19023110.594 10 0 59639 21600.00000 0 1133131.356 -18993046.161 16983319.340 10 0 59639 22500.00000 0 1838574.571 -20818102.255 14613502.424 10 0 59639 23400.00000 0 2291978.490 -22403674.975 11959613.905 10 0 59639 24300.00000 0 2521577.835 -23694307.399 9073167.771 10 0 59639 25200.00000 0 2565707.657 -24643385.991 6010239.982 10 0 59639 26100.00000 0 2470937.221 -25215064.197 2830377.791 10 0 59639 27000.00000 0 2289852.868 -25385753.906 -404562.334 10 0 59639 27900.00000 0 2078584.422 -25145120.883 -3631625.069 10 0 59639 28800.00000 0 1894180.941 -24496541.309 -6787990.361 10 0 59639 29700.00000 0 1791948.277 -23456999.414 -9812206.244 10 0 59639 30600.00000 0 1822862.734 -22056429.986 -12645395.184 10 0 59639 31500.00000 0 2031171.825 -20336533.355 -15232409.233 10 0 59639 32400.00000 0 2452285.159 -18349112.788 -17522910.609 10 0 59639 33300.00000 0 3111045.962 -16154004.584 -19472355.983 10 0 59639 34200.00000 0 4020457.311 -13816688.302 -21042864.892 10 0 59639 35100.00000 0 5180917.686 -11405677.808 -22203955.411 10 0 59639 36000.00000 0 6579998.690 -8989802.741 -22933133.062 10 0 59639 36900.00000 0 8192774.670 -6635494.295 -23216322.009 10 0 59639 37800.00000 0 9982690.705 -4404188.467 -23048130.857 10 0 59639 38700.00000 0 11902932.725 -2349954.597 -22431948.648 10 0 59639 39600.00000 0 13898242.463 -517447.231 -21379869.902 10 0 59639 40500.00000 0 15907101.375 1059734.572 -19912450.804 10 0 59639 41400.00000 0 17864192.352 2360213.701 -18058301.804 10 0 59639 42300.00000 0 19703036.368 3375480.267 -15853524.924 10 0 59639 43200.00000 0 21358694.098 4109990.790 -13341007.001 10 0 59639 44100.00000 0 22770419.823 4580719.146 -10569582.717 10 0 59639 45000.00000 0 23884156.920 4816180.011 -7593083.855 10 0 59639 45900.00000 0 24654770.964 4854967.620 -4469293.289 10 0 59639 46800.00000 0 25047927.432 4743872.770 -1258824.042 10 0 59639 47700.00000 0 25041535.856 4535658.575 1976054.747 10 0 59639 48600.00000 0 24626700.459 4286589.554 5172622.217 10 0 59639 49500.00000 0 23808137.876 4053818.843 8268917.326 10 0 59639 50400.00000 0 22604044.813 3892744.002 11204934.182 10 0 59639 51300.00000 0 21045421.343 3854443.001 13923778.379 10 0 59639 52200.00000 0 19174878.067 3983298.501 16372762.464 10 0 59639 53100.00000 0 17044976.721 4314910.408 18504419.871 10 0 59639 54000.00000 0 14716172.910 4874384.681 20277418.437 10 0 59639 54900.00000 0 12254445.906 5675070.620 21657356.576 10 0 59639 55800.00000 0 9728713.278 6717800.225 22617427.338 10 0 59639 56700.00000 0 7208136.743 7990662.480 23138938.046 10 0 59639 57600.00000 0 4759430.039 9469323.316 23211675.777 10 0 59639 58500.00000 0 2444279.604 11117879.419 22834111.548 10 0 59639 59400.00000 0 316984.214 12890211.960 22013438.964 10 0 59639 60300.00000 0 -1577589.210 14731785.534 20765445.843 10 0 59639 61200.00000 0 -3205649.072 16581818.819 19114220.384 10 0 59639 62100.00000 0 -4545653.862 18375737.713 17091696.381 10 0 59639 63000.00000 0 -5588969.417 20047809.499 14737045.032 10 0 59639 63900.00000 0 -6339981.225 21533848.303 12095924.016 10 0 59639 64800.00000 0 -6815657.204 22773878.649 9219597.383 10 0 59639 65700.00000 0 -7044579.434 23714644.951 6163942.629 10 0 59639 66600.00000 0 -7065485.846 24311860.693 2988364.052 10 0 59639 67500.00000 0 -6925383.868 24532101.636 -245366.421 10 0 59639 68400.00000 0 -6677316.482 24354262.064 -3474317.846 10 0 59639 69300.00000 0 -6377876.145 23770511.500 -6635633.882 10 0 59639 70200.00000 0 -6084573.062 22786710.460 -9667766.299 10 0 59639 71100.00000 0 -5853170.658 21422266.817 -12511683.252 10 0 59639 72000.00000 0 -5735102.490 19709438.336 -15112027.520 10 0 59639 72900.00000 0 -5775081.368 17692110.432 -17418201.262 10 0 59639 73800.00000 0 -6009003.083 15424100.547 -19385355.483 10 0 59639 74700.00000 0 -6462234.345 12967060.611 -20975264.516 10 0 59639 75600.00000 0 -7148358.015 10388065.785 -22157068.500 10 0 59639 76500.00000 0 -8068429.064 7756990.661 -22907869.719 10 0 59639 77400.00000 0 -9210772.872 5143782.804 -23213171.657 10 0 59639 78300.00000 0 -10551334.466 2615747.264 -23067152.993 10 0 59639 79200.00000 0 -12054564.040 234954.876 -22472771.924 10 0 59639 80100.00000 0 -13674801.498 -1944118.378 -21441699.538 10 0 59639 81000.00000 0 -15358101.886 -3876623.737 -19994084.215 10 0 59639 81900.00000 0 -17044425.180 -5528960.584 -18158152.108 10 0 59639 82800.00000 0 -18670098.640 -6879919.978 -15969651.925 10 0 59639 83700.00000 0 -20170448.654 -7921305.028 -13471155.028 10 0 59639 84600.00000 0 -21482491.959 -8658004.237 -10711224.587 10 0 59639 85500.00000 0 -22547573.592 -9107516.681 -7743470.110 99